Time,TemperatureF,DewpointF,PressureIn,WindDirection,WindDirectionDegrees,WindSpeedMPH,WindSpeedGustMPH,Humidity,HourlyPrecipIn,Conditions,Clouds,dailyrainin,SolarRadiationWatts/m^2,SoftwareType,DateUTC
2013-05-05 00:02:00,47.0,46.0,-100.00,SE,129,7.0,25.0,98,0.10,,,1.77,0.000000,,2013-05-05 04:02:00,
2013-05-05 00:33:00,47.0,46.0,-100.00,ESE,118,8.0,22.0,97,0.22,,,1.99,0.000000,,2013-05-05 04:33:00,
2013-05-05 00:43:00,47.0,46.0,-100.00,ESE,118,8.0,22.0,97,0.22,,,1.99,0.000000,,2013-05-05 04:43:00,
2013-05-05 00:53:00,47.0,46.0,-100.00,ESE,118,8.0,22.0,97,0.22,,,1.99,0.000000,,2013-05-05 04:53:00,
2013-05-05 01:02:00,47.0,46.0,-100.00,ESE,118,8.0,22.0,97,0.22,,,1.99,0.000000,,2013-05-05 05:02:00,
2013-05-05 01:32:00,47.0,46.0,-100.00,SSW,199,6.0,21.0,98,0.11,,,2.10,0.000000,,2013-05-05 05:32:00,
2013-05-05 01:42:00,47.0,46.0,-100.00,SSW,199,6.0,21.0,98,0.11,,,2.10,0.000000,,2013-05-05 05:42:00,
2013-05-05 01:52:00,47.0,46.0,-100.00,SSW,199,6.0,21.0,98,0.11,,,2.10,0.000000,,2013-05-05 05:52:00,
2013-05-05 02:02:00,47.0,46.0,-100.00,SSW,199,6.0,21.0,98,0.11,,,2.10,0.000000,,2013-05-05 06:02:00,
2013-05-05 02:32:00,47.0,46.0,-100.00,SE,143,7.0,27.0,97,0.17,,,2.27,0.000000,,2013-05-05 06:32:00,
2013-05-05 02:42:00,47.0,46.0,-100.00,SE,143,7.0,27.0,97,0.17,,,2.27,0.000000,,2013-05-05 06:42:00,
2013-05-05 02:52:00,47.0,46.0,-100.00,SE,143,7.0,27.0,97,0.17,,,2.27,0.000000,,2013-05-05 06:52:00,
2013-05-05 03:01:00,47.0,46.0,-100.00,SE,143,7.0,27.0,97,0.17,,,2.27,0.000000,,2013-05-05 07:01:00,
2013-05-05 03:32:00,47.0,46.0,-100.00,SE,139,7.0,28.0,95,0.21,,,2.48,0.000000,,2013-05-05 07:32:00,
2013-05-05 03:42:00,47.0,46.0,-100.00,SE,139,7.0,28.0,95,0.21,,,2.48,0.000000,,2013-05-05 07:42:00,
2013-05-05 03:52:00,47.0,46.0,-100.00,SE,139,7.0,28.0,95,0.21,,,2.48,0.000000,,2013-05-05 07:52:00,
2013-05-05 04:02:00,47.0,46.0,-100.00,SE,139,7.0,28.0,95,0.21,,,2.48,0.000000,,2013-05-05 08:02:00,
2013-05-05 04:32:00,47.0,46.0,-100.00,SSE,154,7.0,24.0,95,0.12,,,2.58,0.000000,,2013-05-05 08:32:00,
2013-05-05 04:42:00,47.0,46.0,-100.00,SSE,154,7.0,24.0,95,0.12,,,2.58,0.000000,,2013-05-05 08:42:00,
2013-05-05 04:53:00,47.0,46.0,-100.00,SSE,154,7.0,24.0,95,0.12,,,2.58,0.000000,,2013-05-05 08:53:00,
2013-05-05 05:01:00,47.0,46.0,-100.00,SSE,154,7.0,24.0,95,0.12,,,2.58,0.000000,,2013-05-05 09:01:00,
2013-05-05 05:33:00,47.0,46.0,-100.00,SE,125,10.0,27.0,96,0.18,,,2.75,0.000000,,2013-05-05 09:33:00,
2013-05-05 05:42:00,47.0,46.0,-100.00,SE,125,10.0,27.0,96,0.18,,,2.75,0.000000,,2013-05-05 09:42:00,
2013-05-05 05:52:00,47.0,46.0,-100.00,SE,125,10.0,27.0,96,0.18,,,2.75,0.000000,,2013-05-05 09:52:00,
2013-05-05 06:03:00,47.0,46.0,-100.00,SE,125,10.0,27.0,96,0.18,,,2.75,0.000000,,2013-05-05 10:03:00,
2013-05-05 06:32:00,47.0,46.0,-100.00,SE,139,9.0,30.0,96,0.16,,,2.91,0.000000,,2013-05-05 10:32:00,
2013-05-05 06:42:00,47.0,46.0,-100.00,SE,139,9.0,30.0,96,0.16,,,2.91,0.000000,,2013-05-05 10:42:00,
2013-05-05 06:53:00,47.0,46.0,-100.00,SE,139,9.0,30.0,96,0.16,,,2.91,0.000000,,2013-05-05 10:53:00,
2013-05-05 07:02:00,47.0,46.0,-100.00,SE,139,9.0,30.0,96,0.16,,,2.91,0.000000,,2013-05-05 11:02:00,
2013-05-05 07:32:00,47.0,46.0,-100.00,SSE,149,10.0,21.0,96,0.20,,,3.11,1.000000,,2013-05-05 11:32:00,
2013-05-05 07:42:00,47.0,46.0,-100.00,SSE,149,10.0,21.0,96,0.20,,,3.11,1.000000,,2013-05-05 11:42:00,
2013-05-05 07:52:00,47.0,46.0,-100.00,SSE,149,10.0,21.0,96,0.20,,,3.11,1.000000,,2013-05-05 11:52:00,
2013-05-05 08:02:00,47.0,46.0,-100.00,SSE,149,10.0,21.0,96,0.20,,,3.11,1.000000,,2013-05-05 12:02:00,
2013-05-05 09:32:00,46.0,44.0,-100.00,SSE,147,8.0,29.0,94,-99.99,,,3.44,67.000000,,2013-05-05 13:32:00,
2013-05-05 09:42:00,46.0,44.0,-100.00,SSE,147,8.0,29.0,94,-99.99,,,3.44,67.000000,,2013-05-05 13:42:00,
2013-05-05 09:52:00,46.0,44.0,-100.00,SSE,147,8.0,29.0,94,-99.99,,,3.44,67.000000,,2013-05-05 13:52:00,
2013-05-05 10:02:00,46.0,44.0,-100.00,SSE,147,8.0,29.0,94,-99.99,,,3.44,67.000000,,2013-05-05 14:02:00,
2013-05-05 10:32:00,47.0,46.0,-100.00,South,180,5.0,18.0,95,0.10,,,3.45,107.000000,,2013-05-05 14:32:00,
2013-05-05 10:42:00,47.0,46.0,-100.00,South,180,5.0,18.0,95,0.10,,,3.45,107.000000,,2013-05-05 14:42:00,
2013-05-05 10:52:00,47.0,46.0,-100.00,South,180,5.0,18.0,95,0.10,,,3.45,107.000000,,2013-05-05 14:52:00,
2013-05-05 11:02:00,47.0,46.0,-100.00,South,180,5.0,18.0,95,0.10,,,3.45,107.000000,,2013-05-05 15:02:00,
2013-05-05 11:33:00,47.0,46.0,-100.00,SE,145,7.0,25.0,95,0.16,,,3.51,167.000000,,2013-05-05 15:33:00,
2013-05-05 11:43:00,47.0,46.0,-100.00,SE,145,7.0,25.0,95,0.16,,,3.51,167.000000,,2013-05-05 15:43:00,
2013-05-05 11:53:00,47.0,46.0,-100.00,SE,145,7.0,25.0,95,0.16,,,3.51,167.000000,,2013-05-05 15:53:00,
2013-05-05 12:03:00,47.0,46.0,-100.00,SE,145,7.0,25.0,95,0.16,,,3.51,167.000000,,2013-05-05 16:03:00,
2013-05-05 12:32:00,47.0,46.0,-100.00,SSE,165,7.0,19.0,96,0.08,,,3.56,228.000000,,2013-05-05 16:32:00,
2013-05-05 12:42:00,47.0,46.0,-100.00,SSE,165,7.0,19.0,96,0.08,,,3.56,228.000000,,2013-05-05 16:42:00,
2013-05-05 12:53:00,47.0,46.0,-100.00,SSE,165,7.0,19.0,96,0.08,,,3.56,228.000000,,2013-05-05 16:53:00,
2013-05-05 13:02:00,47.0,46.0,-100.00,SSE,165,7.0,19.0,96,0.08,,,3.56,228.000000,,2013-05-05 17:02:00,
2013-05-05 13:32:00,47.0,46.0,-100.00,SSE,157,8.0,21.0,96,0.09,,,3.59,223.000000,,2013-05-05 17:32:00,
2013-05-05 13:42:00,47.0,46.0,-100.00,SSE,157,8.0,21.0,96,0.09,,,3.59,223.000000,,2013-05-05 17:42:00,
2013-05-05 13:52:00,47.0,46.0,-100.00,SSE,157,8.0,21.0,96,0.09,,,3.59,223.000000,,2013-05-05 17:52:00,
2013-05-05 14:01:00,47.0,46.0,-100.00,SSE,157,8.0,21.0,96,0.09,,,3.59,223.000000,,2013-05-05 18:01:00,
2013-05-05 14:32:00,47.0,46.0,-100.00,SE,140,8.0,23.0,97,0.01,,,3.50,232.000000,,2013-05-05 18:32:00,
2013-05-05 14:42:00,47.0,46.0,-100.00,SE,140,8.0,23.0,97,0.01,,,3.50,232.000000,,2013-05-05 18:42:00,
2013-05-05 14:52:00,47.0,46.0,-100.00,SE,140,8.0,23.0,97,0.01,,,3.50,232.000000,,2013-05-05 18:52:00,
2013-05-05 15:01:00,47.0,46.0,-100.00,SE,140,8.0,23.0,97,0.01,,,3.50,232.000000,,2013-05-05 19:01:00,
2013-05-05 16:32:00,47.0,46.0,-100.00,SE,142,6.0,17.0,98,-99.99,,,3.36,182.000000,,2013-05-05 20:32:00,
2013-05-05 16:42:00,47.0,46.0,-100.00,SE,142,6.0,17.0,98,-99.99,,,3.36,182.000000,,2013-05-05 20:42:00,
2013-05-05 16:52:00,47.0,46.0,-100.00,SE,142,6.0,17.0,98,-99.99,,,3.36,182.000000,,2013-05-05 20:52:00,
2013-05-05 17:02:00,47.0,46.0,-100.00,SE,142,6.0,17.0,98,-99.99,,,3.36,182.000000,,2013-05-05 21:02:00,
2013-05-05 18:34:00,48.0,48.0,-100.00,SSE,160,6.0,12.0,99,-99.99,,,3.19,115.000000,,2013-05-05 22:34:00,
2013-05-05 18:42:00,48.0,48.0,-100.00,SSE,160,6.0,12.0,99,-99.99,,,3.19,115.000000,,2013-05-05 22:42:00,
2013-05-05 18:52:00,48.0,48.0,-100.00,SSE,160,6.0,12.0,99,-99.99,,,3.19,115.000000,,2013-05-05 22:52:00,
2013-05-05 19:02:00,48.0,48.0,-100.00,SSE,160,6.0,12.0,99,-99.99,,,3.19,115.000000,,2013-05-05 23:02:00,
2013-05-05 19:32:00,51.0,48.0,-100.00,SE,128,9.0,20.0,88,0.02,,,2.94,299.000000,,2013-05-05 23:32:00,
2013-05-05 19:42:00,51.0,48.0,-100.00,SE,128,9.0,20.0,88,0.02,,,2.94,299.000000,,2013-05-05 23:42:00,
2013-05-05 19:52:00,51.0,48.0,-100.00,SE,128,9.0,20.0,88,0.02,,,2.94,299.000000,,2013-05-05 23:52:00,
2013-05-05 20:01:00,51.0,48.0,-100.00,SE,128,9.0,20.0,88,0.02,,,2.94,299.000000,,2013-05-06 00:01:00,
2013-05-05 21:32:00,47.0,47.0,-100.00,SE,144,4.0,15.0,100,-99.99,,,2.59,2.000000,,2013-05-06 01:32:00,
2013-05-05 21:42:00,47.0,47.0,-100.00,SE,144,4.0,15.0,100,-99.99,,,2.59,2.000000,,2013-05-06 01:42:00,
2013-05-05 21:52:00,47.0,47.0,-100.00,SE,144,4.0,15.0,100,-99.99,,,2.59,2.000000,,2013-05-06 01:52:00,
2013-05-05 22:02:00,47.0,47.0,-100.00,SE,144,4.0,15.0,100,-99.99,,,2.59,2.000000,,2013-05-06 02:02:00,
2013-05-05 22:32:00,48.0,47.0,-100.00,ESE,120,5.0,19.0,95,0.01,,,2.52,0.000000,,2013-05-06 02:32:00,
2013-05-05 22:42:00,48.0,47.0,-100.00,ESE,120,5.0,19.0,95,0.01,,,2.52,0.000000,,2013-05-06 02:42:00,
2013-05-05 22:52:00,48.0,47.0,-100.00,ESE,120,5.0,19.0,95,0.01,,,2.52,0.000000,,2013-05-06 02:52:00,
2013-05-05 23:02:00,48.0,47.0,-100.00,ESE,120,5.0,19.0,95,0.01,,,2.52,0.000000,,2013-05-06 03:02:00,
2013-05-05 23:33:00,46.0,45.0,-100.00,South,188,6.0,15.0,96,0.17,,,2.59,0.000000,,2013-05-06 03:33:00,
2013-05-05 23:43:00,46.0,45.0,-100.00,South,188,6.0,15.0,96,0.17,,,2.59,0.000000,,2013-05-06 03:43:00,
2013-05-05 23:53:00,46.0,45.0,-100.00,South,188,6.0,15.0,96,0.17,,,2.59,0.000000,,2013-05-06 03:53:00,